Weather History for KAYS - August, 2013

Change the Weather History Date:

Thursday, August 1, 2013

  Actual Average (KAMG) Record (KAMG)
Temperature  
Mean Temperature 81 °F 82 °F  
Max Temperature 87 °F 92 °F 100 °F (1961)
Min Temperature 75 °F 72 °F 61 °F (1966)
Degree Days  
Heating Degree Days 0 0  
Month to date heating degree days 0  
Since 1 June heating degree days 0  
Since 1 July heating degree days 0  
Cooling Degree Days 16 17  
Month to date cooling degree days 17  
Year to date cooling degree days 1419  
Since 1 June cooling degree days 989  
Growing Degree Days 31 (Base 50)    
Moisture  
Dew Point 76 °F    
Average Humidity 89    
Maximum Humidity 100    
Minimum Humidity 70    
Precipitation  
Precipitation 0.00 in 0.20 in 2.45 in (1997)
Month to date precipitation 0.20  
Year to date precipitation 29.00  
Snow  
Snow 0.00 in 0.00 in 0.00 in ()
Month to date snowfall 0.0  
Since 1 June snowfall 0.0  
Since 1 July snowfall 0.0  
Snow Depth -    
Sea Level Pressure  
Sea Level Pressure 29.99 in    
Wind  
Wind Speed 4 mph (SW)    
Max Wind Speed 10 mph    
Max Gust Speed 24 mph    
Visibility 9 miles    
Events      
T = Trace of Precipitation, MM = Missing Value Source: NWS Daily Summary

Daily Weather History Graph

Daily Weather History Graph

Search for Another Location

Airport or City:

Trip Planner

Search our weather history database for the weather conditions in past years. The results will help you decide how hot, cold, wet, or windy it might be!

Date:

Astronomy

Aug. 01, 2013 Rise Set
Actual Time 6:46 AM EDT 8:24 PM EDT
Civil Twilight 6:20 AM EDT 8:51 PM EDT
Nautical Twilight 5:48 AM EDT 9:22 PM EDT
Astronomical Twilight 5:15 AM EDT 9:55 PM EDT
Moon 2:23 AM EDT (8/1) 4:30 PM EDT (8/1)
Length of Visible Light 14h 31m
Length of Day
13h 38m
Waning Crescent, 23% of the Moon is Illuminated
Aug 1
Waning Crescent
Aug 6
New
Aug 14
First Quarter
Aug 20
Full
Aug 28
Last Quarter

Hourly Weather History & Observations

Time (EDT) Temp. Heat Index Dew Point Humidity Pressure Visibility Wind Dir Wind Speed Gust Speed Precip Events Conditions
12:15 AM 75.2 °F - 75.2 °F 100% 30.04 in 10.0 mi South 5.8 mph - N/A   Mostly Cloudy
12:35 AM 75.2 °F - 75.2 °F 100% 30.03 in 10.0 mi SSW 5.8 mph - N/A   Mostly Cloudy
12:55 AM 75.2 °F - 75.2 °F 100% 30.03 in 10.0 mi SSW 4.6 mph - N/A   Mostly Cloudy
1:15 AM 75.2 °F - 75.2 °F 100% 30.03 in 10.0 mi SW 3.5 mph - N/A   Scattered Clouds
1:35 AM 75.2 °F - 75.2 °F 100% 30.02 in 10.0 mi Calm Calm - N/A   Mostly Cloudy
1:55 AM 75.2 °F - 75.2 °F 100% 30.02 in 10.0 mi SSW 3.5 mph - N/A   Scattered Clouds
2:15 AM 75.2 °F - 75.2 °F 100% 30.01 in 10.0 mi SSW 4.6 mph - N/A   Scattered Clouds
2:35 AM 75.2 °F - 75.2 °F 100% 30.00 in 10.0 mi SW 4.6 mph - N/A   Scattered Clouds
2:55 AM 75.2 °F - 75.2 °F 100% 30.00 in 10.0 mi SSW 8.1 mph - N/A   Mostly Cloudy
3:15 AM 75.2 °F - 75.2 °F 100% 29.99 in 10.0 mi SW 5.8 mph - N/A   Scattered Clouds
3:35 AM 75.2 °F - 75.2 °F 100% 29.99 in 10.0 mi SW 4.6 mph - N/A   Clear
3:55 AM 75.2 °F - 75.2 °F 100% 29.99 in 10.0 mi WSW 4.6 mph - N/A   Clear
4:15 AM 75.2 °F - 75.2 °F 100% 29.98 in 10.0 mi SW 4.6 mph - N/A   Clear
4:35 AM 75.2 °F - 75.2 °F 100% 29.98 in 10.0 mi SW 4.6 mph - N/A   Clear
4:55 AM 75.2 °F - 73.4 °F 94% 29.98 in 7.0 mi SSW 4.6 mph - N/A   Clear
5:15 AM 75.2 °F - 73.4 °F 94% 29.98 in 7.0 mi Calm Calm - N/A   Clear
5:35 AM 75.2 °F - 73.4 °F 94% 29.98 in 7.0 mi Calm Calm - N/A   Clear
5:55 AM 75.2 °F - 73.4 °F 94% 29.98 in 7.0 mi Calm Calm - N/A   Clear
6:15 AM 75.2 °F - 73.4 °F 94% 29.99 in 5.0 mi Calm Calm - N/A   Clear
6:35 AM 75.2 °F - 73.4 °F 94% 29.99 in 5.0 mi Calm Calm - N/A   Clear
6:55 AM 75.2 °F - 73.4 °F 94% 30.00 in 5.0 mi Calm Calm - N/A   Clear
7:15 AM 75.2 °F - 73.4 °F 94% 30.01 in 5.0 mi Calm Calm - N/A   Scattered Clouds
7:35 AM 75.2 °F - 75.2 °F 100% 30.01 in 7.0 mi Calm Calm - N/A   Scattered Clouds
7:55 AM 75.2 °F - 75.2 °F 100% 30.01 in 7.0 mi Calm Calm - N/A   Scattered Clouds
8:15 AM 77.0 °F - 75.2 °F 94% 30.02 in 7.0 mi Calm Calm - N/A   Mostly Cloudy
8:35 AM 77.0 °F - 75.2 °F 94% 30.02 in 10.0 mi SW 5.8 mph - N/A   Mostly Cloudy
8:55 AM 78.8 °F - 75.2 °F 89% 30.02 in 10.0 mi SW 5.8 mph - N/A   Scattered Clouds
9:15 AM 78.8 °F - 75.2 °F 89% 30.02 in 10.0 mi WSW 4.6 mph - N/A   Clear
9:35 AM 80.6 °F 87.1 °F 77.0 °F 89% 30.01 in 10.0 mi WSW 3.5 mph - N/A   Clear
9:55 AM 80.6 °F 87.1 °F 77.0 °F 89% 30.02 in 10.0 mi SW 3.5 mph - N/A   Clear
10:15 AM 80.6 °F 87.1 °F 77.0 °F 89% 30.02 in 10.0 mi West 4.6 mph - N/A   Scattered Clouds
10:35 AM 80.6 °F 87.1 °F 77.0 °F 89% 30.02 in 10.0 mi WSW 3.5 mph - N/A   Scattered Clouds
10:55 AM 82.4 °F 92.4 °F 78.8 °F 89% 30.02 in 10.0 mi SW 4.6 mph - N/A   Scattered Clouds
11:15 AM 82.4 °F 92.4 °F 78.8 °F 89% 30.02 in 10.0 mi SW 4.6 mph - N/A   Mostly Cloudy
11:35 AM 84.2 °F 96.1 °F 78.8 °F 84% 30.02 in 10.0 mi WSW 5.8 mph - N/A   Mostly Cloudy
11:55 AM 80.6 °F 86.2 °F 75.2 °F 84% 30.01 in 10.0 mi NNW 9.2 mph - N/A   Mostly Cloudy
12:15 PM 78.8 °F - 75.2 °F 89% 30.01 in 10.0 mi Calm Calm - N/A   Mostly Cloudy
12:35 PM 78.8 °F - 75.2 °F 89% 30.00 in 10.0 mi Calm Calm - N/A   Clear
12:55 PM 82.4 °F 90.9 °F 77.0 °F 84% 29.99 in 10.0 mi Calm Calm - N/A   Clear
1:15 PM 84.2 °F 94.1 °F 77.0 °F 79% 30.00 in 10.0 mi West 4.6 mph - N/A   Clear
1:35 PM 84.2 °F 94.1 °F 77.0 °F 79% 29.99 in 10.0 mi NNW 3.5 mph - N/A   Scattered Clouds
1:55 PM 82.4 °F 92.4 °F 78.8 °F 89% 30.01 in 10.0 mi West 10.4 mph 24.2 mph N/A   Scattered Clouds
2:15 PM 75.2 °F - 73.4 °F 94% 30.01 in 0.8 mi WSW 4.6 mph 10.4 mph N/A   Overcast
2:35 PM 75.2 °F - 73.4 °F 94% 29.99 in 10.0 mi Calm Calm - N/A   Mostly Cloudy
2:55 PM 75.2 °F - 73.4 °F 94% 29.98 in 10.0 mi WSW 4.6 mph - N/A   Scattered Clouds
3:15 PM 77.0 °F - 73.4 °F 89% 29.98 in 7.0 mi SW 3.5 mph - N/A   Mostly Cloudy
3:35 PM 78.8 °F - 75.2 °F 89% 29.97 in 10.0 mi SW 5.8 mph - N/A   Scattered Clouds
3:55 PM 82.4 °F 89.5 °F 75.2 °F 79% 29.96 in 10.0 mi SSW 8.1 mph - N/A   Clear
4:15 PM 84.2 °F 92.3 °F 75.2 °F 74% 29.95 in 10.0 mi SW 5.8 mph - N/A   Clear
4:35 PM 86.0 °F 95.1 °F 75.2 °F 70% 29.94 in 10.0 mi SW 9.2 mph - N/A   Clear
4:55 PM 86.0 °F 96.9 °F 77.0 °F 74% 29.94 in 10.0 mi SW 5.8 mph - N/A   Clear
5:15 PM 87.8 °F 99.7 °F 77.0 °F 70% 29.95 in 10.0 mi SSW 8.1 mph - N/A   Clear
5:35 PM 86.0 °F 95.1 °F 75.2 °F 70% 29.95 in 10.0 mi SSW 4.6 mph - N/A   Clear
5:55 PM 87.8 °F 99.7 °F 77.0 °F 70% 29.95 in 10.0 mi South 6.9 mph - N/A   Scattered Clouds
6:15 PM 87.8 °F 102.5 °F 78.8 °F 75% 29.96 in 10.0 mi SW 9.2 mph - N/A   Scattered Clouds
6:35 PM 87.8 °F 102.5 °F 78.8 °F 75% 29.95 in 10.0 mi South 9.2 mph - N/A   Clear
6:55 PM 87.8 °F 102.5 °F 78.8 °F 75% 29.95 in 10.0 mi SSW 6.9 mph - N/A   Clear
7:15 PM 87.8 °F 102.5 °F 78.8 °F 75% 29.96 in 10.0 mi South 6.9 mph - N/A   Clear
7:35 PM 84.2 °F 94.1 °F 77.0 °F 79% 29.96 in 10.0 mi South 10.4 mph - N/A   Clear
7:55 PM 84.2 °F 96.1 °F 78.8 °F 84% 29.95 in 10.0 mi SSE 9.2 mph - N/A   Clear
8:15 PM 82.4 °F 89.5 °F 75.2 °F 79% 29.96 in 10.0 mi South 10.4 mph - N/A   Clear
8:35 PM 80.6 °F 86.2 °F 75.2 °F 84% 29.97 in 10.0 mi South 6.9 mph - N/A   Clear
8:55 PM 78.8 °F - 75.2 °F 89% 29.98 in 10.0 mi South 4.6 mph - N/A   Scattered Clouds
9:15 PM 78.8 °F - 75.2 °F 89% 29.96 in 10.0 mi SW 4.6 mph - N/A   Clear
9:35 PM 78.8 °F - 75.2 °F 89% 29.96 in 10.0 mi SSW 4.6 mph - N/A   Clear
9:55 PM 78.8 °F - 75.2 °F 89% 29.96 in 10.0 mi SW 5.8 mph - N/A   Clear
10:15 PM 78.8 °F - 75.2 °F 89% 29.98 in 10.0 mi Calm Calm - N/A   Clear
10:35 PM 77.0 °F - 75.2 °F 94% 29.97 in 10.0 mi South 6.9 mph - N/A   Clear
10:55 PM 77.0 °F - 73.4 °F 89% 29.98 in 10.0 mi SW 5.8 mph - N/A   Clear
11:15 PM 77.0 °F - 75.2 °F 94% 29.98 in 10.0 mi SSW 4.6 mph - N/A   Clear
11:35 PM 75.2 °F - 73.4 °F 94% 29.98 in 10.0 mi South 4.6 mph - N/A   Clear
11:55 PM 75.2 °F - 73.4 °F 94% 29.98 in 10.0 mi South 4.6 mph - N/A   Clear